KINEIS-5C

Last updated on Thu Sep 24 2026 00:03:12 GMT+0000 (Coordinated Universal Time)

1 62081U 24219A 26266.60377745 .00000432 00000+0 76051-4 0 9997 2 62081 97.9157 62.7932 0003473 346.3607 13.7506 14.72323376 98234
UTC large
Height (km)
Speed (km/s)
/
Latitude / Longitude
Inclination (degrees)
Orbital Period (minutes)
Azimuth
Elevation
Range (km)
Doppler Factor

Next 0 passes for location: London (51.5072 / 0.1276)

No passes found over London.
KINEIS-5C